TimeEDT,TemperatureF,Dew PointF,Humidity,Sea Level PressureIn,VisibilityMPH,Wind Direction,Wind SpeedMPH,Gust SpeedMPH,PrecipitationIn,Events,Conditions,WindDirDegrees,DateUTC
12:55 AM,48.9,44.1,83,30.21,10.0,Calm,Calm,-,N/A,,Clear,0,2013-09-06 04:55:00
1:55 AM,48.0,44.1,86,30.20,10.0,Calm,Calm,-,N/A,,Clear,0,2013-09-06 05:55:00
2:55 AM,48.9,44.1,83,30.19,10.0,Calm,Calm,-,N/A,,Clear,0,2013-09-06 06:55:00
3:55 AM,46.9,44.1,90,30.18,10.0,Calm,Calm,-,N/A,,Clear,0,2013-09-06 07:55:00
4:55 AM,48.0,44.1,86,30.18,10.0,Calm,Calm,-,N/A,,Clear,0,2013-09-06 08:55:00
5:55 AM,48.0,45.0,89,30.17,10.0,Calm,Calm,-,N/A,,Clear,0,2013-09-06 09:55:00
6:55 AM,48.9,46.9,93,30.17,10.0,Calm,Calm,-,N/A,,Scattered Clouds,0,2013-09-06 10:55:00
7:55 AM,50.0,48.0,93,30.17,10.0,Calm,Calm,-,N/A,,Scattered Clouds,0,2013-09-06 11:55:00
8:55 AM,55.0,50.0,83,30.17,10.0,Calm,Calm,-,N/A,,Clear,0,2013-09-06 12:55:00
9:55 AM,61.0,55.0,81,30.14,10.0,SW,6.9,-,N/A,,Clear,220,2013-09-06 13:55:00
10:55 AM,66.0,55.9,70,30.12,10.0,SW,9.2,-,N/A,,Clear,230,2013-09-06 14:55:00
11:55 AM,70.0,57.0,63,30.10,10.0,SW,9.2,-,N/A,,Clear,230,2013-09-06 15:55:00
12:55 PM,70.0,57.9,65,30.06,10.0,SSW,11.5,-,N/A,,Clear,210,2013-09-06 16:55:00
1:55 PM,70.0,57.0,63,30.08,10.0,WSW,15.0,-,N/A,,Clear,240,2013-09-06 17:55:00
2:55 PM,66.9,57.0,70,30.07,10.0,WSW,6.9,-,N/A,,Clear,240,2013-09-06 18:55:00
3:41 PM,64.9,59.0,81,30.07,10.0,West,3.5,-,0.02,Rain,Light Rain,260,2013-09-06 19:41:00
3:55 PM,64.9,60.1,84,30.07,10.0,West,3.5,-,0.02,Rain,Light Rain,270,2013-09-06 19:55:00
4:06 PM,64.9,59.0,81,30.05,10.0,WSW,3.5,-,0.00,Rain,Light Rain,240,2013-09-06 20:06:00
4:55 PM,64.0,57.0,78,30.01,10.0,South,6.9,-,0.01,,Overcast,190,2013-09-06 20:55:00
5:25 PM,64.0,59.0,84,30.01,10.0,Calm,Calm,-,N/A,,Overcast,0,2013-09-06 21:25:00
5:55 PM,64.9,60.1,84,30.02,10.0,Calm,Calm,-,0.00,Rain,Light Rain,0,2013-09-06 21:55:00
6:55 PM,63.0,61.0,93,30.01,8.0,ENE,3.5,-,0.01,Rain,Light Rain,60,2013-09-06 22:55:00
7:30 PM,62.1,60.1,93,30.01,1.8,NNW,5.8,-,0.15,Rain,Heavy Rain,330,2013-09-06 23:30:00
7:53 PM,60.8,60.8,100,30.01,2.0,Calm,Calm,-,0.45,Rain,Heavy Rain,0,2013-09-06 23:53:00
7:55 PM,61.0,60.1,97,30.01,2.5,Calm,Calm,-,0.46,Rain,Rain,0,2013-09-06 23:55:00
8:00 PM,61.0,60.1,97,30.01,3.0,SSE,4.6,-,0.01,Rain,Heavy Rain,160,2013-09-07 00:00:00
8:05 PM,61.0,59.0,93,30.02,2.0,WSW,5.8,-,0.06,Rain,Heavy Rain,240,2013-09-07 00:05:00
8:12 PM,60.1,57.9,93,29.99,1.0,SSW,10.4,-,0.21,Rain,Heavy Rain,210,2013-09-07 00:12:00
8:41 PM,60.1,57.9,93,29.99,2.0,SW,6.9,-,0.55,Rain,Heavy Rain,230,2013-09-07 00:41:00
8:46 PM,61.0,57.9,90,29.99,3.0,SW,8.1,-,0.56,Rain,Rain,230,2013-09-07 00:46:00
8:55 PM,61.0,57.9,90,29.99,3.0,SSW,5.8,-,0.60,Rain,Heavy Rain,200,2013-09-07 00:55:00
9:55 PM,60.1,57.0,90,29.98,5.0,South,3.5,-,0.08,Rain,Rain,190,2013-09-07 01:55:00
10:04 PM,60.1,57.0,90,29.97,2.0,ESE,4.6,-,0.07,Rain,Heavy Rain,110,2013-09-07 02:04:00
10:12 PM,60.1,57.0,90,29.96,7.0,ESE,5.8,-,0.07,Rain,Light Rain,120,2013-09-07 02:12:00
10:37 PM,60.1,57.9,93,29.97,2.5,South,3.5,-,0.12,Rain,Rain,190,2013-09-07 02:37:00
10:44 PM,60.1,57.9,93,29.97,7.0,Calm,Calm,-,0.13,Rain,Light Rain,0,2013-09-07 02:44:00
10:55 PM,60.1,57.9,93,29.98,5.0,Calm,Calm,-,0.14,Rain,Light Rain,0,2013-09-07 02:55:00
11:20 PM,61.0,57.9,90,29.96,10.0,South,6.9,-,0.01,Rain,Light Rain,190,2013-09-07 03:20:00
11:55 PM,60.1,57.9,93,29.94,2.0,Calm,Calm,-,0.04,Rain,Heavy Rain,0,2013-09-07 03:55:00